QZS-1R (49336 NORAD) Tracking and Keplerian Element Data

This shows tracking and keplerian element data for the satellite.

Feedback or suggestion? Click here.




ElementValue
Catalog49336
NameQZS-1R
Epoch Orbit41
Epoch Day337.57187014
Epoch Year2021
RAAN104.9297
Inclination34.0901
Eccentricity0.073728
Argument of Perigee269.9858
Mean Anonmoly35.4634
Mean Motion1.00349555
Decay Rate-2.22E-06
L11 49336U 21096A 21337.57187014 -.00000222 00000+0 00000+0 0 9997
L22 49336 34.0901 104.9297 0737280 269.9858 35.4634 1.00349555 412

Live tracking and technical data element details for QZS-1R (NORAD 49336). QZS-1R can be tracked NOW for your location showing map with azimuth and elevation plus other details from your city location.

Track the satellite on the map from your city or location and see movement details for azimuth, elevation, latitude, longitude, range, height, and movement on the map or in text.







IsCatalogInMostPopularTable: catalog: 49336, numindb: 5
Update: records affected: 1



GetName: 49336 QZS-1R

Hit Count: updated at: Mon, 06 Dec 2021 14:22:40 GMT